AirNav   Air Wisconsin Up To $57,000 Bonus
 
 1633 users online  

KAXQ Clarion County Airport
Clarion, Pennsylvania, USA

GOING TO CLARION?


FAA INFORMATION EFFECTIVE 09 SEPTEMBER 2021

Location

FAA Identifier: AXQ
Lat/Long: 41-13-29.8000N 079-26-31.8000W
41-13.496667N 079-26.530000W
41.2249444,-79.4421667
(estimated)
Elevation: 1457.5 ft. / 444.2 m (surveyed)
Variation: 10W (2005)
From city: 3 miles NW of CLARION, PA
Time zone: UTC -4 (UTC -5 during Standard Time)
Zip code: 16254

Airport Operations

Airport use: Open to the public
Activation date: 04/1974
Control tower: no
ARTCC: CLEVELAND CENTER
FSS: ALTOONA FLIGHT SERVICE STATION
NOTAMs facility: AOO (NOTAM-D service available)
Attendance: 0800-1600
UNATTENDED CHRISTMAS, EASTER & THANKSGIVING.
Wind indicator: lighted
Segmented circle: no
Lights: ACTVT MIRL RY 06/24, REIL RYS 06 & 24 AND PAPI RYS 06 & 24 - CTAF.
Beacon: white-green (lighted land airport)
Operates sunset to sunrise.
Landing fee: yes

Airport Communications

CTAF/UNICOM: 122.8
WX AWOS-3: 118.275 (814-227-2899)
  • APCH/DEP SVC PRVDD BY CLEVELAND ARTCC (ZOB) ON FREQS 126.725/291.65 (DUBOIS RCAG).

Nearby radio navigation aids

VOR radial/distance  VOR name  Freq  Var
FKLr130/(22.6)FRANKLIN VOR109.6006W

Airport Services

Fuel available: 100LL JET-A+
100LL:SINGLE POINT REFUELING AVAILABLE UPON REQUEST.
Parking: hangars and tiedowns
Bottled oxygen: NONE
Bulk oxygen: NONE

Runway Information

Runway 6/24

Dimensions: 5003 x 75 ft. / 1525 x 23 m
Surface: asphalt, in good condition
Weight bearing capacity: 
Single wheel: 15.0
Runway edge lights: medium intensity
RUNWAY 6  RUNWAY 24
Latitude: 41-13.203123N41-13.788593N
Longitude: 079-26.913500W079-26.145995W
Elevation: 1433.1 ft.1457.4 ft.
Traffic pattern: leftleft
Runway heading: 055 magnetic, 045 true235 magnetic, 225 true
Markings: nonprecision, in good conditionnonprecision, in good condition
Visual slope indicator: 2-light PAPI on left (3.00 degrees glide path)2-light PAPI on left (3.00 degrees glide path)
Runway end identifier lights: yesyes
Touchdown point: yes, no lightsyes, no lights
Obstructions: 12 ft. trees, 493 ft. from runway, 255 ft. left of centerline, 24:1 slope to clear37 ft. trees, 851 ft. from runway, 329 ft. left of centerline, 17:1 slope to clear

Airport Ownership and Management from official FAA records

Ownership: Publicly-owned
Owner: CLARION COUNTY ARPT AUTH
395 AIRPORT RD
SHIPPENVILLE, PA 16254
Phone 814-226-9993
Manager: JAMES MCCALL
395 AIRPORT ROAD
SHIPPENVILLE, PA 16254
Phone (814) 226-9993
AFT HRS CALL (814) 316-5746.

Airport Operational Statistics

Aircraft based on the field: 14
Single engine airplanes: 12
Helicopters: 2
    
Aircraft operations: avg 53/week *
53% local general aviation
46% transient general aviation
1% military
* for 12-month period ending 02 September 2020

Additional Remarks

FOR CD CTC CLEVELAND ARTCC AT 440-774-0234/0442.

Instrument Procedures

NOTE: All procedures below are presented as PDF files. If you need a reader for these files, you should download the free Adobe Reader.

NOT FOR NAVIGATION. Please procure official charts for flight.
FAA instrument procedures published for use from 09 September 2021 at 0901Z to 07 October 2021 at 0900Z.

 
IAPs - Instrument Approach Procedures
RNAV (GPS) RWY 06   download (234KB)
RNAV (GPS) RWY 24   download (196KB)
NOTE: Special Take-Off Minimums/Departure Procedures apply   download (149KB)

Other nearby airports with instrument procedures:

KFKL - Venango Regional Airport (21 nm NW)
KDUJ - Dubois Regional Airport (25 nm E)
6G1 - Titusville Airport (27 nm NW)
N35 - Punxsutawney Municipal Airport (28 nm SE)
6P7 - McVille Airport (30 nm S)
 
Loc | Ops | Rwys | IFR | FBO | Links
Com | Nav | Svcs | Stats | Notes
Area around KAXQ (Clarion County Airport)
 
Road maps at: MapQuest Bing Google
 
Aerial photo
WARNING: Photo may not be current or correct
Aerial photo of KAXQ (Clarion County Airport)
Photo by William Pixley
Photo taken 23-Aug-2016
looking east.

Do you have a better or more recent aerial photo of Clarion County Airport that you would like to share? If so, please send us your photo.

 
Sectional chart

 
Airport diagram
CAUTION: Diagram may not be current
Diagram of KAXQ (Clarion County Airport)
 
Airport distance calculator
Flying to Clarion County Airport? Find the distance to fly.

From to KAXQ

Sunrise and sunset
Times for 16-Sep-2021
 Local
(UTC-4)
 Zulu
(UTC)
Morning civil twilight06:3210:32
Sunrise07:0011:00
Sunset19:2523:25
Evening civil twilight19:5323:53

Current date and time
Zulu (UTC)  16-Sep-2021 15:15:27
Local (UTC-4)  16-Sep-2021 11:15:27
 
METAR
KFKL 
21nm NW 
161456Z AUTO 09007KT 10SM FEW011 19/16 A3022 RMK AO2 SLP232 T01940161 53004
KDUJ 
25nm E 
161453Z AUTO 08007KT 10SM OVC007 16/15 A3022 RMK AO2 SLP229 T01610150 53005
KBTP 
36nm SW 
161456Z AUTO 09006KT 10SM OVC006 18/17 A3021 RMK AO2 SLP230 T01830167 53009
KIDI 
40nm SE 
161455Z AUTO VRB06KT 10SM 20/19 A3024 RMK A01
KPJC 
41nm SW 
161455Z AUTO 06004KT 10SM OVC006 17/17 A3019 RMK AO2
TAF
KFKL 
21nm NW 
161332Z 1614/1712 06003KT P6SM SKC FM161500 08006KT P6SM SCT035 FM170400 13004KT P6SM SKC FM170900 13004KT 4SM BR FEW015
KDUJ 
25nm E 
161407Z 1614/1712 06004KT P6SM OVC004 FM161500 09005KT P6SM BKN010 FM161700 12005KT P6SM SCT035 FM170900 11004KT P6SM SKC FM171000 11004KT 4SM BR BKN004
NOTAMs
Click for the latest NOTAMs
NOTAMs are issued by the DoD/FAA and will open in a separate window not controlled by AirNav.

 

 
 

FBO, Fuel Providers, and Aircraft Ground Support

  
 Business Name 
 
 Contact 
 
 Services / Description 
 
Fuel Prices
 
Comments
  
 Clarion County Airport
814-226-9993
[web site]
[email]
Airport management, Aviation fuel, Aircraft ground handling, Aircraft parking (ramp or tiedown), Hangars, Hangar leasing / sales, Passenger terminal and lounge, ...

More info about Clarion County Airport
EPIC
100LL Jet A
AS $4.95 $3.55 
 Updated 07-Sep-2021
 
   write
AS=Assisted/Self Service
Update Fuel Prices
 

Would you like to see your business listed on this page?

 If your business provides an interesting product or service to pilots, flight crews, aircraft, or users of the Clarion County Airport, you should consider listing it here.  To start the listing process, click on the button below
 
Add a business
 

Other Pages about Clarion County Airport

www.clarionairport.com
users.penn.com/~airport
 
Update a link
 
Copyright © AirNav, LLC. All rights reserved. Privacy Policy  Contact